Earth resources
NORAD ID: 28893
Int'l Code: 2005-043D
Perigee: 686.9 km
Apogee: 710.3 km
Inclination: 97.9 °
Period: 98.6 minutes
Semi major axis: 7069 km
Launch date: October 27, 2005
Source: Iran (IRAN)
Comments: Sinah 1 is an Iranian microsatellite (170 kg). Iranian press reports that it is intended for "telecommunications and research".
Two Line Element Set (TLE):
1 28893U 05043D 13145.12587218 .00000215 00000-0 53329-4 0 6924
2 28893 097.8660 000.5761 0016506 149.8183 356.3402 14.60529906403753
Source: AFSPC
NASA's NSSDC Master Catalog entry for SINAH 1